User: anonymous   Login
Location: Drayton Valley
(53.2170°N, 114.9830°W)
Time: 00:50:47
(UTC-06:00)
Language:

MOZ.5/SAFIR/RUBIN 5/SL-8 - Orbit

View from above orbital plane
View from above orbital plane
View from above satellite
View from above satellite

Ground track
Ground track

The orbit data is extracted from the following two-line orbital elements,

1 28898U 05043G   15117.79892560  .00000580  00000-0  12987-3 0  9991
2 28898 097.8439 295.1142 0021129 123.9454 236.3759 14.59870544505815
Epoch (UTC): 27 April 2015 19:10:27
Eccentricity: 0.0021129
inclination: 97.8439°
perigee height: 678 km
apogee height: 708 km
right ascension of ascending node: 295.1142°
argument of perigee: 123.9454°
revolutions per day: 14.59870544
mean anomaly at epoch: 236.3759°
orbit number at epoch: 50581

The dashed part of the orbit path shows where the satellite is in the earth's shadow,  

DLR